Tri-Cities, TN

4:28 PM EST on December 09, 2019 (GMT -0500)
Tri-Cities Regional Tennessee / Virginia

Weather History for KTRI - October, 2019

Change the Weather History Date:

Wednesday, October 16, 2019

  Actual Average Record
Temperature  
Mean Temperature 52 °F 56 °F  
Max Temperature 61 °F 69 °F 83 °F (1984)
Min Temperature 43 °F 43 °F 28 °F (1939)
Degree Days  
Heating Degree Days 13 9  
Month to date heating degree days 38 112  
Since 1 July heating degree days 38 165  
Cooling Degree Days 0 0  
Month to date cooling degree days 67 9  
Year to date cooling degree days 1452 977  
Growing Degree Days 4 (Base 50)    
Moisture  
Dew Point 50 °F    
Average Humidity 73    
Maximum Humidity 100    
Minimum Humidity 46    
Precipitation  
Precipitation 1.24 in 0.07 in 3.65 in (1964)
Month to date precipitation 2.03 1.06  
Year to date precipitation 43.64 33.50  
Snow  
Snow 0.00 in 0.00 in - ()
Month to date snowfall 0.0 0.0  
Since 1 July snowfall 0.0 0.0  
Since 1 September snowfall 0.0 0.0  
Snow Depth 0.00 in    
Sea Level Pressure  
Sea Level Pressure 29.81 in    
Wind  
Wind Speed 8 mph (West)    
Max Wind Speed 23 mph    
Max Gust Speed 33 mph    
Visibility 5 miles    
Events Fog , Rain    
T = Trace of Precipitation, MM = Missing Value Source: NWS Daily Summary

Daily Weather History Graph

Daily Weather History Graph

Search for Another Location

Airport or City:

Astronomy

Oct. 16, 2019 Rise Set
Actual Time 7:37 AM EDT 6:52 PM EDT
Civil Twilight 7:11 AM EDT 7:18 PM EDT
Nautical Twilight 6:41 AM EDT 7:48 PM EDT
Astronomical Twilight 6:11 AM EDT 8:18 PM EDT
Moon 8:48 PM EDT (10/16) 10:03 AM EDT (10/16)
Length of Visible Light 12h 06m
Length of Day
11h 14m
Waning Gibbous, 93% of the Moon is Illuminated
Oct 16
Waning Gibbous
Oct 21
Last Quarter
Oct 27
New
Nov 4
First Quarter
Nov 12
Full

Hourly Weather History & Observations

Time (EDT) Temp. Windchill Dew Point Humidity Pressure Visibility Wind Dir Wind Speed Gust Speed Precip Events Conditions
12:53 AM 57.0 °F - 53.1 °F 87% 29.88 in 4.0 mi Calm Calm - 0.05 in Rain Rain
1:20 AM 55.9 °F - 54.0 °F 93% 29.93 in 4.0 mi SSW 3.5 mph - 0.12 in Rain Rain
1:43 AM 55.9 °F - 54.0 °F 93% 29.92 in 2.5 mi NNE 3.5 mph - 0.17 in Rain Heavy Rain
1:53 AM 55.9 °F - 54.0 °F 93% 29.86 in 3.0 mi NNW 4.6 mph - 0.20 in Rain Light Rain
2:53 AM 55.9 °F - 54.0 °F 93% 29.83 in 5.0 mi Calm Calm - 0.01 in   Overcast
3:00 AM 55.9 °F - 54.0 °F 93% 29.89 in 10.0 mi Calm Calm - N/A   Overcast
3:53 AM 55.9 °F - 54.0 °F 93% 29.81 in 9.0 mi Calm Calm - N/A   Overcast
4:19 AM 55.9 °F - 54.0 °F 93% 29.85 in 3.0 mi North 3.5 mph - 0.01 in Rain Light Rain
4:42 AM 55.9 °F - 54.0 °F 93% 29.83 in 6.0 mi Calm Calm - 0.01 in Rain Light Rain
4:53 AM 55.9 °F - 54.0 °F 93% 29.77 in 6.0 mi Calm Calm - 0.02 in Rain Light Rain
5:11 AM 55.9 °F - 54.0 °F 93% 29.82 in 1.8 mi Calm Calm - 0.03 in Rain Heavy Rain
5:20 AM 55.0 °F - 54.0 °F 96% 29.82 in 1.2 mi Calm Calm - 0.15 in Rain Heavy Rain
5:26 AM 55.9 °F - 54.0 °F 93% 29.82 in 2.0 mi Variable 3.5 mph - 0.18 in Rain Rain
5:53 AM 55.9 °F - 54.0 °F 93% 29.75 in 3.0 mi Calm Calm - 0.26 in Rain Heavy Rain
6:44 AM 55.9 °F - 54.0 °F 93% 29.78 in 2.5 mi Calm Calm - 0.12 in Rain Rain
6:51 AM 55.4 °F - 53.6 °F 94% 29.77 in 3.0 mi Calm Calm - 0.13 in Rain Light Rain
6:53 AM 55.9 °F - 54.0 °F 93% 29.72 in 3.0 mi Calm Calm - 0.13 in Rain Light Rain
7:53 AM 55.9 °F - 55.0 °F 97% 29.71 in 3.0 mi Calm Calm - 0.14 in Rain Heavy Rain
7:57 AM 55.9 °F - 55.0 °F 97% 29.77 in 2.5 mi Calm Calm - 0.02 in Rain Rain
8:15 AM 55.9 °F - 55.0 °F 97% 29.76 in 2.5 mi Calm Calm - 0.07 in Rain Rain
8:53 AM 55.9 °F - 55.0 °F 97% 29.73 in 2.0 mi West 4.6 mph - 0.23 in Rain Heavy Rain
8:58 AM 55.9 °F - 55.0 °F 97% 29.80 in 0.5 mi WNW 9.2 mph - 0.04 in Fog , Rain Heavy Rain
9:12 AM 57.0 °F - 55.0 °F 93% 29.76 in 2.0 mi ESE 4.6 mph - 0.16 in Rain Light Rain
9:47 AM 57.2 °F - 55.4 °F 94% 29.79 in 2.5 mi SW 4.6 mph - 0.17 in Rain Light Rain
9:53 AM 57.0 °F - 55.0 °F 93% 29.74 in 2.5 mi WSW 4.6 mph - 0.17 in   Overcast
10:53 AM 57.9 °F - 55.0 °F 90% 29.74 in 2.5 mi SW 5.8 mph - 0.02 in   Overcast
11:21 AM 59.0 °F - 55.9 °F 90% 29.78 in 2.5 mi WSW 4.6 mph - N/A   Overcast
11:53 AM 59.0 °F - 57.0 °F 93% 29.73 in 2.5 mi WSW 8.1 mph - 0.00 in Rain Light Rain
11:55 AM 59.0 °F - 57.0 °F 93% 29.78 in 1.2 mi West 8.1 mph - 0.00 in Rain Light Rain
12:15 PM 55.9 °F - 52.0 °F 87% 29.80 in 1.2 mi WNW 18.4 mph 28.8 mph 0.07 in Rain Light Rain
12:38 PM 55.9 °F - 48.9 °F 77% 29.79 in 4.0 mi NW 15.0 mph 25.3 mph 0.08 in Rain Light Rain
12:53 PM 55.0 °F - 46.9 °F 74% 29.76 in 4.0 mi WNW 16.1 mph 26.5 mph 0.08 in Rain Light Rain
1:53 PM 57.9 °F - 50.0 °F 75% 29.78 in 10.0 mi West 13.8 mph - 0.00 in   Mostly Cloudy
2:53 PM 60.1 °F - 42.1 °F 51% 29.78 in 10.0 mi WSW 17.3 mph 24.2 mph N/A   Mostly Cloudy
3:53 PM 61.0 °F - 41.0 °F 48% 29.78 in 10.0 mi West 15.0 mph - N/A   Mostly Cloudy
4:53 PM 60.1 °F - 39.0 °F 46% 29.78 in 10.0 mi West 12.7 mph - N/A   Mostly Cloudy
5:53 PM 57.9 °F - 39.0 °F 49% 29.81 in 10.0 mi WNW 10.4 mph 19.6 mph N/A   Mostly Cloudy
6:53 PM 55.9 °F - 39.0 °F 53% 29.84 in 10.0 mi West 15.0 mph 19.6 mph N/A   Overcast
7:53 PM 54.0 °F - 36.0 °F 51% 29.88 in 10.0 mi NW 15.0 mph 24.2 mph N/A   Mostly Cloudy
8:53 PM 52.0 °F - 35.1 °F 53% 29.91 in 10.0 mi WNW 15.0 mph - N/A   Overcast
9:53 PM 51.1 °F - 35.1 °F 54% 29.93 in 10.0 mi NW 11.5 mph - N/A   Overcast
10:53 PM 48.9 °F - 34.0 °F 56% 29.96 in 10.0 mi NNW 13.8 mph 23.0 mph N/A   Overcast
11:53 PM 46.0 °F 44.8 °F 32.0 °F 58% 29.95 in 10.0 mi Variable 3.5 mph - N/A   Partly Cloudy